No particular awareness of the weather is required.    There are no Weather-warnings




My webcam more information My webcam


Meteosat more information Meteosat


Rain radar more information rain snow radar


Visit our other weather sites:

Template documentation
and downloads

And another site



Select another period ( hide this area )

Units Period Custom range Directly to
Metric English Both
Daily Weekly Monthly Yearly
use both date-selectors for a custom range
previous Day
With this date

WeatherUnderground graphs for this period ( click here )


Warning: Division by zero in /var/www/vhosts/5/103384/webspace/httpdocs/santgenismeteo.org/weather28/wu/WU-History4.php on line 835
Daily Summary for Friday 17 January 2020
Time Temp. ( °C ) Dew pt. ( °C ) Wind ( km/h ) from Gust ( km/h ) Pressure ( hPa ) Humid.( % ) Rainrate ( cm ) Solar ( W/m2 )
High16,7 8,5 16,9 East ( 348/726 ) 16,9 1025,3 84 - 0
Average13,1 3,7 2,9 Calm #119/248 -845,8 1022,4 55 - 0 #0/248
Low10,3 -1,5 -   -1607,4 1020,5 39 -  
Daily Tabular details for Friday 17 January 2020
Time Temp. ( °C ) Dew pt. ( °C ) Wind ( km/h ) from Gust ( km/h ) Pressure ( hPa ) Humid.( % ) Rainrate ( cm ) Solar ( W/m2 )
00:01 11,6 8,5   Calm -1607,4 1024,3 81 - -
00:06 11,5 8,2   Calm -1607,4 1024,3 80 - -
00:11 11,5 8,2   Calm -1607,4 1024,3 80 - -
00:16 11,5 8,2   Calm -1607,4 1024,3 80 - -
00:21 11,6 8,5   Calm -1607,4 1023,2 81 - -
00:26 11,6 8,5   Calm -1607,4 1023,2 81 - -
00:31 11,7 8,5   Calm -1607,4 1023,2 81 - -
00:36 11,7 8,4   Calm -1607,4 1023,2 80 - -
00:41 11,6 8,3   Calm -1607,4 1023,2 80 - -
00:46 11,6 8,3   Calm -1607,4 1023,2 80 - -
00:51 11,5 8,0   Calm -1607,4 1023,2 79 - -
00:56 11,3 7,6   Calm -1607,4 1023,2 78 - -
01:01 11,1 7,4   Calm -1607,4 1023,2 78 - -
01:06 11,0 7,3   Calm -1607,4 1023,2 78 - -
01:11 10,9 7,4   Calm -1607,4 1023,2 79 - -
01:16 10,9 7,6   Calm -1607,4 1023,2 80 - -
01:21 10,9 7,6   Calm -1607,4 1022,2 80 - -
01:26 10,8 7,5   Calm -1607,4 1022,2 80 - -
01:31 10,8 7,5   Calm -1607,4 1022,2 80 - -
01:36 10,7 7,4   Calm -1607,4 1023,2 80 - -
01:41 10,6 7,3   Calm -1607,4 1023,2 80 - -
01:46 10,5 7,4   Calm -1607,4 1023,2 81 - -
01:51 10,5 7,4   Calm -1607,4 1022,2 81 - -
01:56 10,5 7,6   Calm -1607,4 1022,2 82 - -
02:01 10,4 7,6   Calm -1607,4 1022,2 83 - -
02:06 10,4 7,6   Calm -1607,4 1022,2 83 - -
02:12 10,3 7,7   Calm -1607,4 1022,2 84 - -
02:17 10,3 7,7   Calm -1607,4 1023,2 84 - -
02:22 10,3 7,7   Calm -1607,4 1023,2 84 - -
02:27 10,4 7,8   Calm -1607,4 1023,2 84 - -
02:32 10,4 7,8   Calm -1607,4 1023,2 84 - -
02:37 10,4 7,8   Calm -1607,4 1023,2 84 - -
02:42 10,4 7,8   Calm -1607,4 1023,2 84 - -
02:47 10,6 8,0   Calm -1607,4 1023,2 84 - -
02:52 10,7 8,1   Calm -1607,4 1023,2 84 - -
02:57 10,7 8,1   Calm -1607,4 1023,2 84 - -
03:02 10,7 7,9   Calm -1607,4 1023,2 83 - -
03:07 10,8 8,0   Calm -1607,4 1023,2 83 - -
03:12 10,8 8,0   Calm -1607,4 1023,2 83 - -
03:17 10,9 8,1   Calm -1607,4 1023,2 83 - -
03:22 10,9 8,1   Calm -1607,4 1023,2 83 - -
03:27 10,9 7,9   Calm -1607,4 1023,2 82 - -
03:32 10,9 7,9   Calm -1607,4 1023,2 82 - -
03:37 10,8 7,7   Calm -1607,4 1023,2 81 - -
03:42 10,8 7,7   Calm -1607,4 1023,2 81 - -
03:47 10,9 7,8   Calm -1607,4 1022,2 81 - -
03:52 10,9 7,4   Calm -1607,4 1022,2 79 - -
03:57 11,1 7,0   Calm -1607,4 1022,2 76 - -
04:02 11,2 6,9   Calm -1607,4 1022,2 75 - -
04:07 11,2 6,7   Calm -1607,4 1022,2 74 - -
04:12 11,2 6,3   Calm -1607,4 1022,2 72 - -
04:17 11,3 6,2   Calm -1607,4 1022,2 71 - -
04:22 11,4 5,9   Calm -1607,4 1022,2 69 - -
04:27 11,5 5,8   Calm -1607,4 1022,2 68 - -
04:32 11,5 5,6 4,7 West 4,7 1022,2 67 - -
04:37 11,5 5,6 4,7 West 4,7 1022,2 67 - -
04:42 11,5 5,4 4,7 West 4,7 1022,2 66 - -
04:47 11,6 5,0 4,7 West -1607,4 1022,2 64 - -
04:52 11,7 5,1 4,7 West -1607,4 1022,2 64 - -
04:57 11,7 4,9   Calm -1607,4 1022,2 63 - -
05:02 11,6 4,8 4,3 West 4,3 1022,2 63 - -
05:07 11,7 4,4 4,3 West 4,3 1022,2 61 - -
05:12 11,8 4,3 4,3 West 4,3 1022,2 60 - -
05:17 11,8 4,3 4,3 West -1607,4 1022,2 60 - -
05:22 11,8 4,3   Calm -1607,4 1022,2 60 - -
05:27 11,7 4,4 5,8 East 5,8 1022,2 61 - -
05:32 11,7 4,4 5,8 East 5,8 1021,2 61 - -
05:37 11,6 4,3 7,9 West 7,9 1021,2 61 - -
05:42 11,6 4,6 7,9 West 7,9 1021,2 62 - -
05:47 11,6 4,6 7,9 West 7,9 1021,2 62 - -
05:52 11,5 4,7 7,9 West 7,9 1021,2 63 - -
05:57 11,5 4,7 7,9 West -1607,4 1021,2 63 - -
06:02 11,4 4,6   Calm -1607,4 1021,2 63 - -
06:07 11,4 4,6   Calm   1021,2 63 - -
06:12 11,4 4,6   Calm   1021,2 63 - -
06:17 11,5 4,5   Calm   1021,2 62 - -
06:22 11,5 4,5   Calm -1607,4 1021,2 62 - -
06:27 11,7 4,4   Calm -1607,4 1021,2 61 - -
06:32 11,8 4,3   Calm -1607,4 1021,2 60 - -
06:37 11,9 4,4   Calm -1607,4 1021,2 60 - -
06:42 11,9 4,1   Calm -1607,4 1021,2 59 - -
06:47 11,9 4,1 1,4 WNW 1,4 1021,2 59 - -
06:52 12,0 4,0 1,4 WNW 1,4 1021,2 58 - -
06:57 12,0 4,0 1,4 WNW 1,4 1021,2 58 - -
07:02 12,1 3,8 1,8 East 1,8 1021,2 57 - -
07:07 12,0 3,7 1,8 East 1,8 1021,2 57 - -
07:12 12,0 3,7 1,8 East 1,8 1021,2 57 - -
07:17 12,0 3,7 1,8 East -1607,4 1021,2 57 - -
07:22 11,9 3,6 1,8 East -1607,4 1021,2 57 - -
07:27 11,8 3,6   Calm -1607,4 1021,2 57 - -
07:32 11,8 3,6 1,4 East 1,4 1022,2 57 - -
07:37 11,8 3,6 12,2 ENE 12,2 1022,2 57 - -
07:42 11,7 3,7 6,9 East 6,9 1022,2 58 - -
07:47 11,7 3,7 6,9 East 6,9 1022,2 58 - -
07:52 11,7 3,5 6,9 East 6,9 1022,2 57 - -
07:57 11,7 3,5 6,9 East -1607,4 1022,2 57 - -
08:02 11,7 3,5 6,9 East -1607,4 1022,2 57 - -
08:07 11,7 3,2   Calm -1607,4 1022,2 56 - -
08:12 11,6 3,1   Calm -1607,4 1022,2 56 - -
08:17 11,5 3,3   Calm -1607,4 1022,2 57 - -
08:22 11,4 3,2 12,6 WNW 12,6 1022,2 57 - -
08:27 11,3 3,1 4,0 East 9,3 1022,2 57 - -
08:32 11,3 3,1 9,3 NW 12,6 1022,2 57 - -
08:37 11,3 3,3 1,4 West 5,0 1022,2 58 - -
08:42 11,3 3,3 9,7 East 9,7 1022,2 58 - -
08:47 11,4 3,2 3,2 East 4,3 1022,2 57 - -
08:52 11,4 3,2 3,2 East 3,2 1022,2 57 - -
08:57 11,6 3,4 3,2 East 3,2 1022,2 57 - -
09:02 11,7 3,5 1,8 SE 5,0 1022,2 57 - -
09:07 12,0 3,2 6,9 East 10,1 1022,2 55 - -
09:12 12,3 3,3 6,4 East 6,4 1022,2 54 - -
09:17 12,5 3,4 5,0 ENE 6,4 1022,2 54 - -
09:22 12,7 3,4 1,4 West 1,4 1022,2 53 - -
09:27 12,8 3,5 1,4 West 1,4 1022,2 53 - -
09:32 12,9 3,3 4,0 West 9,3 1022,2 52 - -
09:37 13,0 3,4 4,0 West 4,0 1022,2 52 - -
09:42 13,1 3,2 4,0 West 4,0 1022,2 51 - -
09:47 13,2 3,3 4,3 West 12,2 1022,2 51 - -
09:52 13,3 3,1 8,7 East 9,3 1022,2 50 - -
09:57 13,4 3,2 2,6 West 2,6 1022,2 50 - -
10:02 13,4 2,9 4,0 West 4,0 1023,2 49 - -
10:07 13,5 3,0 9,7 East 9,7 1023,2 49 - -
10:12 13,6 3,1 6,1 West 9,3 1023,2 49 - -
10:17 13,5 3,0 3,2 East 8,7 1023,2 49 - -
10:22 13,6 3,1 2,6 ESE 7,9 1023,2 49 - -
10:27 13,7 3,2 5,0 NW 5,0 1023,2 49 - -
10:32 13,7 3,2 11,6 East 11,6 1023,2 49 - -
10:37 13,8 3,3 1,4 West 3,2 1023,2 49 - -
10:42 13,9 3,1 7,9 WNW 9,7 1023,2 48 - -
10:47 14,0 2,9 5,8 NE 5,8 1023,2 47 - -
10:52 14,2 3,0 9,7 West 9,7 1023,2 47 - -
10:57 14,3 3,1 10,1 East 10,1 1023,2 47 - -
11:02 14,4 3,2 5,5 West 13,0 1023,2 47 - -
11:07 14,5 3,0 5,5 West 5,5 1023,2 46 - -
11:12 14,6 3,1   Calm 14,0 1023,2 46 - -
11:17 14,7 3,2 7,9 East 8,7 1024,3 46 - -
11:22 14,9 3,4 4,3 East 4,3 1024,3 46 - -
11:27 14,9 3,4 6,1 East 9,7 1024,3 46 - -
11:32 15,0 3,2 1,8 West 14,0 1024,3 45 - -
11:37 15,0 3,2 2,6 West 6,1 1024,3 45 - -
11:42 15,1 3,3 6,4 East 6,4 1024,3 45 - -
11:47 15,0 3,2 5,0 East 12,6 1023,2 45 - -
11:52 15,1 3,3 4,3 East 4,3 1023,2 45 - -
11:57 15,1 3,3 12,6 West 12,6 1023,2 45 - -
12:02 15,1 3,3 3,5 East 4,7 1023,2 45 - -
12:07 15,3 3,4 3,5 East 3,5 1023,2 45 - -
12:12 15,4 3,5 3,5 East 3,5 1023,2 45 - -
12:17 15,5 3,6 9,3 West 9,3 1023,2 45 - -
12:22 15,5 3,6 1,8 East 1,8 1023,2 45 - -
12:27 15,6 3,7 1,8 East 1,8 1023,2 45 - -
12:32 15,6 3,4 16,9 East 16,9 1023,2 44 - -
12:37 15,6 3,4 16,9 East 16,9 1023,2 44 - -
12:42 15,9 3,7 16,9 East 16,9 1023,2 44 - -
12:47 16,0 3,4 16,9 East 16,9 1022,2 43 - -
12:52 15,9 3,3 16,9 East -1607,4 1022,2 43 - -
12:57 16,0 3,1   Calm -1607,4 1022,2 42 - -
13:02 16,1 3,5   Calm -1607,4 1022,2 43 - -
13:07 16,2 3,3   Calm -1607,4 1022,2 42 - -
13:12 16,2 3,3   Calm -1607,4 1022,2 42 - -
13:17 16,3 3,4   Calm -1607,4 1021,2 42 - -
13:22 16,4 3,1 10,1 ESE 10,1 1021,2 41 - -
13:27 16,4 3,1 2,1 West 4,0 1021,2 41 - -
13:32 16,4 3,1 2,1 West 2,1 1021,2 41 - -
13:37 16,4 3,1 6,1 East 6,1 1021,2 41 - -
13:42 16,5 3,2 6,1 East 6,1 1021,2 41 - -
13:47 16,5 3,2 6,1 East 6,1 1020,5 41 - -
13:52 16,5 3,2 6,1 East -1607,4 1020,5 41 - -
13:57 16,5 2,9 6,1 East -1607,4 1020,5 40 - -
14:02 16,6 2,9 4,7 East 9,0 1020,5 40 - -
14:07 16,7 3,0 5,5 NW 9,3 1020,5 40 - -
14:12 16,5 2,9 11,9 ESE 16,9 1020,5 40 - -
14:17 16,4 2,4 10,1 WNW 10,1 1021,2 39 - -
14:22 16,3 2,3 10,1 WNW 10,1 1021,2 39 - -
14:27 16,3 2,3 2,1 East 11,9 1021,2 39 - -
14:32 16,3 2,7 8,7 WNW 8,7 1021,2 40 - -
14:37 16,2 2,6 8,7 West 8,7 1021,2 40 - -
14:42 16,2 2,6 6,9 WNW 6,9 1021,2 40 - -
14:47 16,1 2,5 3,2 West 9,3 1021,2 40 - -
14:52 16,2 2,6 3,5 East 4,3 1021,2 40 - -
14:57 16,3 2,7 1,4 WNW 9,0 1021,2 40 - -
15:02 16,3 2,7 3,5 East 6,9 1021,2 40 - -
15:07 16,3 2,7 1,4 West 11,9 1021,2 40 - -
15:12 16,4 2,8 6,1 SSW 7,2 1021,2 40 - -
15:17 16,3 2,7 4,7 West 4,7 1021,2 40 - -
15:22 16,3 2,3 4,7 West 4,7 1021,2 39 - -
15:27 16,2 2,6 4,7 West 4,7 1021,2 40 - -
15:32 16,1 2,5 4,7 West -1607,4 1021,2 40 - -
15:37 16,0 2,4 4,7 West -1607,4 1021,2 40 - -
15:42 16,0 2,4   Calm -1607,4 1021,2 40 - -
15:47 15,8 2,2   Calm -1607,4 1020,5 40 - -
15:52 15,7 2,1   Calm -1607,4 1020,5 40 - -
15:57 15,7 2,5   Calm -1607,4 1020,5 41 - -
16:02 15,6 2,4   Calm -1607,4 1021,2 41 - -
16:07 15,5 2,0   Calm -1607,4 1021,2 40 - -
16:12 15,5 2,3   Calm -1607,4 1021,2 41 - -
16:17 15,6 2,4 5,5 SW 5,5 1020,5 41 - -
16:22 15,6 2,4 9,7 ESE 9,7 1020,5 41 - -
16:27 15,6 2,0 4,0 East 7,6 1020,5 40 - -
16:32 15,5 2,3 6,9 WNW 9,7 1021,2 41 - -
16:37 15,5 2,3 1,4 East 7,9 1021,2 41 - -
16:42 15,3 1,8 1,4 East 1,4 1021,2 40 - -
16:47 15,2 2,0 3,2 West 3,2 1021,2 41 - -
16:52 15,0 1,9 3,2 West 3,2 1021,2 41 - -
16:57 14,9 1,8 3,2 West 3,2 1021,2 41 - -
17:02 14,8 1,7 3,2 West -1607,4 1022,2 41 - -
17:07 14,7 1,6 3,2 West -1607,4 1022,2 41 - -
17:12 14,6 1,5   Calm -1607,4 1022,2 41 - -
17:17 14,5 1,4   Calm -1607,4 1022,2 41 - -
17:22 14,4 1,3   Calm -1607,4 1022,2 41 - -
17:27 14,4 1,3   Calm -1607,4 1022,2 41 - -
17:32 14,3 1,2   Calm -1607,4 1021,2 41 - -
17:37 14,2 0,8   Calm 4,0 1021,2 40 - -
17:42 14,2 0,8 5,5 East 5,5 1021,2 40 - -
17:47 14,2 0,8 5,5 East 5,5 1022,2 40 - -
17:52 14,1 0,7 5,5 East 5,5 1022,2 40 - -
17:57 14,1 0,3 5,5 East -1607,4 1022,2 39 - -
18:02 14,0 0,3 5,5 East -1607,4 1022,2 39 - -
18:07 13,9 0,5   Calm -1607,4 1022,2 40 - -
18:12 13,8 0,4   Calm -1607,4 1022,2 40 - -
18:17 13,8 0,4   Calm -1607,4 1023,2 40 - -
18:22 13,7 0,3   Calm -1607,4 1023,2 40 - -
18:27 13,7 0,3   Calm -1607,4 1023,2 40 - -
18:32 13,6 0,2   Calm -1607,4 1022,2 40 - -
18:37 13,6 0,2   Calm -1607,4 1022,2 40 - -
18:42 13,5 -0,2   Calm -1607,4 1022,2 39 - -
18:47 13,6 -0,1   Calm -1607,4 1023,2 39 - -
18:52 13,5 -0,2   Calm -1607,4 1023,2 39 - -
18:57 13,4 -0,3   Calm -1607,4 1023,2 39 - -
19:02 13,3 -0,4   Calm -1607,4 1024,3 39 - -
19:07 13,2 -0,5   Calm -1607,4 1024,3 39 - -
19:12 13,1 -0,5   Calm -1607,4 1024,3 39 - -
19:17 13,0 -0,6   Calm -1607,4 1024,3 39 - -
19:22 12,9 -0,7   Calm -1607,4 1024,3 39 - -
19:27 12,8 -0,8   Calm -1607,4 1024,3 39 - -
19:32 12,7 -0,9   Calm -1607,4 1025,3 39 - -
19:37 12,6 -1,0   Calm -1607,4 1025,3 39 - -
19:42 12,5 -1,1   Calm -1607,4 1025,3 39 - -
19:47 12,4 -1,2   Calm -1607,4 1025,3 39 - -
19:52 12,2 -1,0   Calm -1607,4 1025,3 40 - -
19:57 12,2 -1,4   Calm -1607,4 1025,3 39 - -
20:02 12,2 -1,4   Calm -1607,4 1025,3 39 - -
20:07 12,1 -1,1   Calm -1607,4 1025,3 40 - -
20:12 12,0 -1,2   Calm -1607,4 1025,3 40 - -
20:17 11,9 -1,3   Calm -1607,4 1025,3 40 - -
20:22 12,0 -1,5   Calm -1607,4 1025,3 39 - -
20:27 12,1 -1,4   Calm -1607,4 1025,3 39 - -
20:32 12,1 -1,4   Calm -1607,4 1024,3 39 - -
20:37 12,0 -1,5   Calm -1607,4 1024,3 39 - -
Daily Summary for Friday 17 January 2020
Time Temp. ( °C ) Dew pt. ( °C ) Wind ( km/h ) from Gust ( km/h ) Pressure ( hPa ) Humid.( % ) Rainrate ( cm ) Solar ( W/m2 )
High16,7 8,5 16,9 East ( 348/726 ) 16,9 1025,3 84 - 0
Average13,1 3,7 2,9 Calm #119/248 -845,8 1022,4 55 - 0 #0/248
Low10,3 -1,5 -   -1607,4 1020,5 39 -  
Daily Tabular details for Friday 17 January 2020
Time Temp. ( °C ) Dew pt. ( °C ) Wind ( km/h ) from Gust ( km/h ) Pressure ( hPa ) Humid.( % ) Rainrate ( cm ) Solar ( W/m2 )
00:01 11,6 8,5   Calm -1607,4 1024,3 81 - -
00:06 11,5 8,2   Calm -1607,4 1024,3 80 - -
00:11 11,5 8,2   Calm -1607,4 1024,3 80 - -
00:16 11,5 8,2   Calm -1607,4 1024,3 80 - -
00:21 11,6 8,5   Calm -1607,4 1023,2 81 - -
00:26 11,6 8,5   Calm -1607,4 1023,2 81 - -
00:31 11,7 8,5   Calm -1607,4 1023,2 81 - -
00:36 11,7 8,4   Calm -1607,4 1023,2 80 - -
00:41 11,6 8,3   Calm -1607,4 1023,2 80 - -
00:46 11,6 8,3   Calm -1607,4 1023,2 80 - -
00:51 11,5 8,0   Calm -1607,4 1023,2 79 - -
00:56 11,3 7,6   Calm -1607,4 1023,2 78 - -
01:01 11,1 7,4   Calm -1607,4 1023,2 78 - -
01:06 11,0 7,3   Calm -1607,4 1023,2 78 - -
01:11 10,9 7,4   Calm -1607,4 1023,2 79 - -
01:16 10,9 7,6   Calm -1607,4 1023,2 80 - -
01:21 10,9 7,6   Calm -1607,4 1022,2 80 - -
01:26 10,8 7,5   Calm -1607,4 1022,2 80 - -
01:31 10,8 7,5   Calm -1607,4 1022,2 80 - -
01:36 10,7 7,4   Calm -1607,4 1023,2 80 - -
01:41 10,6 7,3   Calm -1607,4 1023,2 80 - -
01:46 10,5 7,4   Calm -1607,4 1023,2 81 - -
01:51 10,5 7,4   Calm -1607,4 1022,2 81 - -
01:56 10,5 7,6   Calm -1607,4 1022,2 82 - -
02:01 10,4 7,6   Calm -1607,4 1022,2 83 - -
02:06 10,4 7,6   Calm -1607,4 1022,2 83 - -
02:12 10,3 7,7   Calm -1607,4 1022,2 84 - -
02:17 10,3 7,7   Calm -1607,4 1023,2 84 - -
02:22 10,3 7,7   Calm -1607,4 1023,2 84 - -
02:27 10,4 7,8   Calm -1607,4 1023,2 84 - -
02:32 10,4 7,8   Calm -1607,4 1023,2 84 - -
02:37 10,4 7,8   Calm -1607,4 1023,2 84 - -
02:42 10,4 7,8   Calm -1607,4 1023,2 84 - -
02:47 10,6 8,0   Calm -1607,4 1023,2 84 - -
02:52 10,7 8,1   Calm -1607,4 1023,2 84 - -
02:57 10,7 8,1   Calm -1607,4 1023,2 84 - -
03:02 10,7 7,9   Calm -1607,4 1023,2 83 - -
03:07 10,8 8,0   Calm -1607,4 1023,2 83 - -
03:12 10,8 8,0   Calm -1607,4 1023,2 83 - -
03:17 10,9 8,1   Calm -1607,4 1023,2 83 - -
03:22 10,9 8,1   Calm -1607,4 1023,2 83 - -
03:27 10,9 7,9   Calm -1607,4 1023,2 82 - -
03:32 10,9 7,9   Calm -1607,4 1023,2 82 - -
03:37 10,8 7,7   Calm -1607,4 1023,2 81 - -
03:42 10,8 7,7   Calm -1607,4 1023,2 81 - -
03:47 10,9 7,8   Calm -1607,4 1022,2 81 - -
03:52 10,9 7,4   Calm -1607,4 1022,2 79 - -
03:57 11,1 7,0   Calm -1607,4 1022,2 76 - -
04:02 11,2 6,9   Calm -1607,4 1022,2 75 - -
04:07 11,2 6,7   Calm -1607,4 1022,2 74 - -
04:12 11,2 6,3   Calm -1607,4 1022,2 72 - -
04:17 11,3 6,2   Calm -1607,4 1022,2 71 - -
04:22 11,4 5,9   Calm -1607,4 1022,2 69 - -
04:27 11,5 5,8   Calm -1607,4 1022,2 68 - -
04:32 11,5 5,6 4,7 West 4,7 1022,2 67 - -
04:37 11,5 5,6 4,7 West 4,7 1022,2 67 - -
04:42 11,5 5,4 4,7 West 4,7 1022,2 66 - -
04:47 11,6 5,0 4,7 West -1607,4 1022,2 64 - -
04:52 11,7 5,1 4,7 West -1607,4 1022,2 64 - -
04:57 11,7 4,9   Calm -1607,4 1022,2 63 - -
05:02 11,6 4,8 4,3 West 4,3 1022,2 63 - -
05:07 11,7 4,4 4,3 West 4,3 1022,2 61 - -
05:12 11,8 4,3 4,3 West 4,3 1022,2 60 - -
05:17 11,8 4,3 4,3 West -1607,4 1022,2 60 - -
05:22 11,8 4,3   Calm -1607,4 1022,2 60 - -
05:27 11,7 4,4 5,8 East 5,8 1022,2 61 - -
05:32 11,7 4,4 5,8 East 5,8 1021,2 61 - -
05:37 11,6 4,3 7,9 West 7,9 1021,2 61 - -
05:42 11,6 4,6 7,9 West 7,9 1021,2 62 - -
05:47 11,6 4,6 7,9 West 7,9 1021,2 62 - -
05:52 11,5 4,7 7,9 West 7,9 1021,2 63 - -
05:57 11,5 4,7 7,9 West -1607,4 1021,2 63 - -
06:02 11,4 4,6   Calm -1607,4 1021,2 63 - -
06:07 11,4 4,6   Calm   1021,2 63 - -
06:12 11,4 4,6   Calm   1021,2 63 - -
06:17 11,5 4,5   Calm   1021,2 62 - -
06:22 11,5 4,5   Calm -1607,4 1021,2 62 - -
06:27 11,7 4,4   Calm -1607,4 1021,2 61 - -
06:32 11,8 4,3   Calm -1607,4 1021,2 60 - -
06:37 11,9 4,4   Calm -1607,4 1021,2 60 - -
06:42 11,9 4,1   Calm -1607,4 1021,2 59 - -
06:47 11,9 4,1 1,4 WNW 1,4 1021,2 59 - -
06:52 12,0 4,0 1,4 WNW 1,4 1021,2 58 - -
06:57 12,0 4,0 1,4 WNW 1,4 1021,2 58 - -
07:02 12,1 3,8 1,8 East 1,8 1021,2 57 - -
07:07 12,0 3,7 1,8 East 1,8 1021,2 57 - -
07:12 12,0 3,7 1,8 East 1,8 1021,2 57 - -
07:17 12,0 3,7 1,8 East -1607,4 1021,2 57 - -
07:22 11,9 3,6 1,8 East -1607,4 1021,2 57 - -
07:27 11,8 3,6   Calm -1607,4 1021,2 57 - -
07:32 11,8 3,6 1,4 East 1,4 1022,2 57 - -
07:37 11,8 3,6 12,2 ENE 12,2 1022,2 57 - -
07:42 11,7 3,7 6,9 East 6,9 1022,2 58 - -
07:47 11,7 3,7 6,9 East 6,9 1022,2 58 - -
07:52 11,7 3,5 6,9 East 6,9 1022,2 57 - -
07:57 11,7 3,5 6,9 East -1607,4 1022,2 57 - -
08:02 11,7 3,5 6,9 East -1607,4 1022,2 57 - -
08:07 11,7 3,2   Calm -1607,4 1022,2 56 - -
08:12 11,6 3,1   Calm -1607,4 1022,2 56 - -
08:17 11,5 3,3   Calm -1607,4 1022,2 57 - -
08:22 11,4 3,2 12,6 WNW 12,6 1022,2 57 - -
08:27 11,3 3,1 4,0 East 9,3 1022,2 57 - -
08:32 11,3 3,1 9,3 NW 12,6 1022,2 57 - -
08:37 11,3 3,3 1,4 West 5,0 1022,2 58 - -
08:42 11,3 3,3 9,7 East 9,7 1022,2 58 - -
08:47 11,4 3,2 3,2 East 4,3 1022,2 57 - -
08:52 11,4 3,2 3,2 East 3,2 1022,2 57 - -
08:57 11,6 3,4 3,2 East 3,2 1022,2 57 - -
09:02 11,7 3,5 1,8 SE 5,0 1022,2 57 - -
09:07 12,0 3,2 6,9 East 10,1 1022,2 55 - -
09:12 12,3 3,3 6,4 East 6,4 1022,2 54 - -
09:17 12,5 3,4 5,0 ENE 6,4 1022,2 54 - -
09:22 12,7 3,4 1,4 West 1,4 1022,2 53 - -
09:27 12,8 3,5 1,4 West 1,4 1022,2 53 - -
09:32 12,9 3,3 4,0 West 9,3 1022,2 52 - -
09:37 13,0 3,4 4,0 West 4,0 1022,2 52 - -
09:42 13,1 3,2 4,0 West 4,0 1022,2 51 - -
09:47 13,2 3,3 4,3 West 12,2 1022,2 51 - -
09:52 13,3 3,1 8,7 East 9,3 1022,2 50 - -
09:57 13,4 3,2 2,6 West 2,6 1022,2 50 - -
10:02 13,4 2,9 4,0 West 4,0 1023,2 49 - -
10:07 13,5 3,0 9,7 East 9,7 1023,2 49 - -
10:12 13,6 3,1 6,1 West 9,3 1023,2 49 - -
10:17 13,5 3,0 3,2 East 8,7 1023,2 49 - -
10:22 13,6 3,1 2,6 ESE 7,9 1023,2 49 - -
10:27 13,7 3,2 5,0 NW 5,0 1023,2 49 - -
10:32 13,7 3,2 11,6 East 11,6 1023,2 49 - -
10:37 13,8 3,3 1,4 West 3,2 1023,2 49 - -
10:42 13,9 3,1 7,9 WNW 9,7 1023,2 48 - -
10:47 14,0 2,9 5,8 NE 5,8 1023,2 47 - -
10:52 14,2 3,0 9,7 West 9,7 1023,2 47 - -
10:57 14,3 3,1 10,1 East 10,1 1023,2 47 - -
11:02 14,4 3,2 5,5 West 13,0 1023,2 47 - -
11:07 14,5 3,0 5,5 West 5,5 1023,2 46 - -
11:12 14,6 3,1   Calm 14,0 1023,2 46 - -
11:17 14,7 3,2 7,9 East 8,7 1024,3 46 - -
11:22 14,9 3,4 4,3 East 4,3 1024,3 46 - -
11:27 14,9 3,4 6,1 East 9,7 1024,3 46 - -
11:32 15,0 3,2 1,8 West 14,0 1024,3 45 - -
11:37 15,0 3,2 2,6 West 6,1 1024,3 45 - -
11:42 15,1 3,3 6,4 East 6,4 1024,3 45 - -
11:47 15,0 3,2 5,0 East 12,6 1023,2 45 - -
11:52 15,1 3,3 4,3 East 4,3 1023,2 45 - -
11:57 15,1 3,3 12,6 West 12,6 1023,2 45 - -
12:02 15,1 3,3 3,5 East 4,7 1023,2 45 - -
12:07 15,3 3,4 3,5 East 3,5 1023,2 45 - -
12:12 15,4 3,5 3,5 East 3,5 1023,2 45 - -
12:17 15,5 3,6 9,3 West 9,3 1023,2 45 - -
12:22 15,5 3,6 1,8 East 1,8 1023,2 45 - -
12:27 15,6 3,7 1,8 East 1,8 1023,2 45 - -
12:32 15,6 3,4 16,9 East 16,9 1023,2 44 - -
12:37 15,6 3,4 16,9 East 16,9 1023,2 44 - -
12:42 15,9 3,7 16,9 East 16,9 1023,2 44 - -
12:47 16,0 3,4 16,9 East 16,9 1022,2 43 - -
12:52 15,9 3,3 16,9 East -1607,4 1022,2 43 - -
12:57 16,0 3,1   Calm -1607,4 1022,2 42 - -
13:02 16,1 3,5   Calm -1607,4 1022,2 43 - -
13:07 16,2 3,3   Calm -1607,4 1022,2 42 - -
13:12 16,2 3,3   Calm -1607,4 1022,2 42 - -
13:17 16,3 3,4   Calm -1607,4 1021,2 42 - -
13:22 16,4 3,1 10,1 ESE 10,1 1021,2 41 - -
13:27 16,4 3,1 2,1 West 4,0 1021,2 41 - -
13:32 16,4 3,1 2,1 West 2,1 1021,2 41 - -
13:37 16,4 3,1 6,1 East 6,1 1021,2 41 - -
13:42 16,5 3,2 6,1 East 6,1 1021,2 41 - -
13:47 16,5 3,2 6,1 East 6,1 1020,5 41 - -
13:52 16,5 3,2 6,1 East -1607,4 1020,5 41 - -
13:57 16,5 2,9 6,1 East -1607,4 1020,5 40 - -
14:02 16,6 2,9 4,7 East 9,0 1020,5 40 - -
14:07 16,7 3,0 5,5 NW 9,3 1020,5 40 - -
14:12 16,5 2,9 11,9 ESE 16,9 1020,5 40 - -
14:17 16,4 2,4 10,1 WNW 10,1 1021,2 39 - -
14:22 16,3 2,3 10,1 WNW 10,1 1021,2 39 - -
14:27 16,3 2,3 2,1 East 11,9 1021,2 39 - -
14:32 16,3 2,7 8,7 WNW 8,7 1021,2 40 - -
14:37 16,2 2,6 8,7 West 8,7 1021,2 40 - -
14:42 16,2 2,6 6,9 WNW 6,9 1021,2 40 - -
14:47 16,1 2,5 3,2 West 9,3 1021,2 40 - -
14:52 16,2 2,6 3,5 East 4,3 1021,2 40 - -
14:57 16,3 2,7 1,4 WNW 9,0 1021,2 40 - -
15:02 16,3 2,7 3,5 East 6,9 1021,2 40 - -
15:07 16,3 2,7 1,4 West 11,9 1021,2 40 - -
15:12 16,4 2,8 6,1 SSW 7,2 1021,2 40 - -
15:17 16,3 2,7 4,7 West 4,7 1021,2 40 - -
15:22 16,3 2,3 4,7 West 4,7 1021,2 39 - -
15:27 16,2 2,6 4,7 West 4,7 1021,2 40 - -
15:32 16,1 2,5 4,7 West -1607,4 1021,2 40 - -
15:37 16,0 2,4 4,7 West -1607,4 1021,2 40 - -
15:42 16,0 2,4   Calm -1607,4 1021,2 40 - -
15:47 15,8 2,2   Calm -1607,4 1020,5 40 - -
15:52 15,7 2,1   Calm -1607,4 1020,5 40 - -
15:57 15,7 2,5   Calm -1607,4 1020,5 41 - -
16:02 15,6 2,4   Calm -1607,4 1021,2 41 - -
16:07 15,5 2,0   Calm -1607,4 1021,2 40 - -
16:12 15,5 2,3   Calm -1607,4 1021,2 41 - -
16:17 15,6 2,4 5,5 SW 5,5 1020,5 41 - -
16:22 15,6 2,4 9,7 ESE 9,7 1020,5 41 - -
16:27 15,6 2,0 4,0 East 7,6 1020,5 40 - -
16:32 15,5 2,3 6,9 WNW 9,7 1021,2 41 - -
16:37 15,5 2,3 1,4 East 7,9 1021,2 41 - -
16:42 15,3 1,8 1,4 East 1,4 1021,2 40 - -
16:47 15,2 2,0 3,2 West 3,2 1021,2 41 - -
16:52 15,0 1,9 3,2 West 3,2 1021,2 41 - -
16:57 14,9 1,8 3,2 West 3,2 1021,2 41 - -
17:02 14,8 1,7 3,2 West -1607,4 1022,2 41 - -
17:07 14,7 1,6 3,2 West -1607,4 1022,2 41 - -
17:12 14,6 1,5   Calm -1607,4 1022,2 41 - -
17:17 14,5 1,4   Calm -1607,4 1022,2 41 - -
17:22 14,4 1,3   Calm -1607,4 1022,2 41 - -
17:27 14,4 1,3   Calm -1607,4 1022,2 41 - -
17:32 14,3 1,2   Calm -1607,4 1021,2 41 - -
17:37 14,2 0,8   Calm 4,0 1021,2 40 - -
17:42 14,2 0,8 5,5 East 5,5 1021,2 40 - -
17:47 14,2 0,8 5,5 East 5,5 1022,2 40 - -
17:52 14,1 0,7 5,5 East 5,5 1022,2 40 - -
17:57 14,1 0,3 5,5 East -1607,4 1022,2 39 - -
18:02 14,0 0,3 5,5 East -1607,4 1022,2 39 - -
18:07 13,9 0,5   Calm -1607,4 1022,2 40 - -
18:12 13,8 0,4   Calm -1607,4 1022,2 40 - -
18:17 13,8 0,4   Calm -1607,4 1023,2 40 - -
18:22 13,7 0,3   Calm -1607,4 1023,2 40 - -
18:27 13,7 0,3   Calm -1607,4 1023,2 40 - -
18:32 13,6 0,2   Calm -1607,4 1022,2 40 - -
18:37 13,6 0,2   Calm -1607,4 1022,2 40 - -
18:42 13,5 -0,2   Calm -1607,4 1022,2 39 - -
18:47 13,6 -0,1   Calm -1607,4 1023,2 39 - -
18:52 13,5 -0,2   Calm -1607,4 1023,2 39 - -
18:57 13,4 -0,3   Calm -1607,4 1023,2 39 - -
19:02 13,3 -0,4   Calm -1607,4 1024,3 39 - -
19:07 13,2 -0,5   Calm -1607,4 1024,3 39 - -
19:12 13,1 -0,5   Calm -1607,4 1024,3 39 - -
19:17 13,0 -0,6   Calm -1607,4 1024,3 39 - -
19:22 12,9 -0,7   Calm -1607,4 1024,3 39 - -
19:27 12,8 -0,8   Calm -1607,4 1024,3 39 - -
19:32 12,7 -0,9   Calm -1607,4 1025,3 39 - -
19:37 12,6 -1,0   Calm -1607,4 1025,3 39 - -
19:42 12,5 -1,1   Calm -1607,4 1025,3 39 - -
19:47 12,4 -1,2   Calm -1607,4 1025,3 39 - -
19:52 12,2 -1,0   Calm -1607,4 1025,3 40 - -
19:57 12,2 -1,4   Calm -1607,4 1025,3 39 - -
20:02 12,2 -1,4   Calm -1607,4 1025,3 39 - -
20:07 12,1 -1,1   Calm -1607,4 1025,3 40 - -
20:12 12,0 -1,2   Calm -1607,4 1025,3 40 - -
20:17 11,9 -1,3   Calm -1607,4 1025,3 40 - -
20:22 12,0 -1,5   Calm -1607,4 1025,3 39 - -
20:27 12,1 -1,4   Calm -1607,4 1025,3 39 - -
20:32 12,1 -1,4   Calm -1607,4 1024,3 39 - -
20:37 12,0 -1,5   Calm -1607,4 1024,3 39 - -

Download your copy of this data-set  here

Our weather-data as stored at Weather Underground. Script developed by Jim McMurry. Adapted for the template by Leuven-Template.eu

You find our weather info also at:

European Weather Network

WeatherCloud

Weather Underground

Meteoclimatic

Equipment we use:

Weather-program
Weather Display

Weather-server
RaspberryPI 2

Provider

Weather Display

RaspberryPI 2